Location: Borojevi?i
(45.0486°N, 16.2297°E)
Time: 10:41:14
(UTC+00:00)

SL-4 R/B - Pass Details

Date: 08 August 2020
Orbit: 428 x 665 km, 51.6° (Epoch: 20 September)

Event Time Altitude Azimuth Distance (km) Brightness Sun altitude
Rises 20:43:06 0° 254° (WSW) 2,649 5.8 -21.6°
Reaches altitude 10° 20:45:25 10° 259° (WSW) 1,720 4.8 -21.8°
Maximum altitude 20:49:13 53° 337° (NNW) 598 2.5 -22.2°
Enters shadow 20:51:34 19° 49° (NE) 1,155 3.7 -22.5°
